Time,TemperatureF,DewpointF,PressureIn,WindDirection,WindDirectionDegrees,WindSpeedMPH,WindSpeedGustMPH,Humidity,HourlyPrecipIn,Conditions,Clouds,dailyrainin,SoftwareType,DateUTC
2013-08-02 00:01:00,65.7,64.2,28.58,West,270,0.0,0.0,95,0.00,RA,SKC,0.00,WeatherDisplay:10.37,2013-08-02 04:01:00,
2013-08-02 00:02:00,65.7,64.2,28.58,West,270,0.0,0.0,95,0.00,RA,SKC,0.00,WeatherDisplay:10.37,2013-08-02 04:02:00,
2013-08-02 00:04:00,65.7,64.2,28.58,West,270,0.0,0.0,95,0.00,RA,SKC,0.00,WeatherDisplay:10.37,2013-08-02 04:04:00,
2013-08-02 00:09:00,66.0,64.8,28.58,West,270,0.0,0.0,96,0.00,RA,SKC,0.00,WeatherDisplay:10.37,2013-08-02 04:09:00,
2013-08-02 00:14:00,66.0,64.8,28.58,North,0,0.0,0.0,96,0.00,CLR,SKC,0.00,WeatherDisplay:10.37,2013-08-02 04:14:00,
2013-08-02 00:19:00,66.2,65.0,28.58,North,0,0.0,0.0,96,0.00,CLR,SKC,0.00,WeatherDisplay:10.37,2013-08-02 04:19:00,
2013-08-02 00:24:00,65.8,64.7,28.58,North,0,0.0,0.0,96,0.00,CLR,SKC,0.00,WeatherDisplay:10.37,2013-08-02 04:24:00,
2013-08-02 00:25:00,65.7,64.5,28.58,North,0,0.0,0.0,96,0.00,CLR,SKC,0.00,WeatherDisplay:10.37,2013-08-02 04:25:00,
2013-08-02 00:30:00,65.3,64.4,28.58,West,270,0.0,0.0,97,0.00,CLR,SKC,0.00,WeatherDisplay:10.37,2013-08-02 04:30:00,
2013-08-02 00:35:00,64.9,64.4,28.58,NW,315,0.0,0.0,98,0.00,CLR,SKC,0.00,WeatherDisplay:10.37,2013-08-02 04:35:00,
2013-08-02 00:40:00,64.9,64.7,28.58,NW,315,0.0,0.0,99,0.00,CLR,SKC,0.00,WeatherDisplay:10.37,2013-08-02 04:40:00,
2013-08-02 00:45:00,64.9,64.9,28.58,NW,315,0.0,0.0,100,0.00,CLR,SKC,0.00,WeatherDisplay:10.37,2013-08-02 04:45:00,
2013-08-02 00:50:00,65.1,64.8,28.58,NW,315,0.0,0.0,99,0.00,CLR,SKC,0.00,WeatherDisplay:10.37,2013-08-02 04:50:00,
2013-08-02 00:55:00,64.9,64.7,28.58,NW,315,0.0,0.0,99,0.00,CLR,SKC,0.00,WeatherDisplay:10.37,2013-08-02 04:55:00,
2013-08-02 01:00:00,64.6,64.3,28.58,SE,135,0.0,0.0,99,0.00,CLR,SKC,0.00,WeatherDisplay:10.37,2013-08-02 05:00:00,
2013-08-02 01:05:00,64.6,64.3,28.58,SE,135,0.0,0.0,99,0.00,CLR,SKC,0.00,WeatherDisplay:10.37,2013-08-02 05:05:00,
2013-08-02 01:10:00,63.7,63.4,28.57,SE,135,0.0,0.0,99,0.00,CLR,SKC,0.00,WeatherDisplay:10.37,2013-08-02 05:10:00,
2013-08-02 01:15:00,63.5,63.2,28.58,SE,135,0.0,0.0,99,0.00,CLR,SKC,0.00,WeatherDisplay:10.37,2013-08-02 05:15:00,
2013-08-02 01:20:00,63.3,63.0,28.58,SSE,158,0.0,0.0,99,0.00,CLR,SKC,0.00,WeatherDisplay:10.37,2013-08-02 05:20:00,
2013-08-02 01:25:00,63.1,62.9,28.58,SE,135,0.0,0.0,99,0.00,CLR,SKC,0.00,WeatherDisplay:10.37,2013-08-02 05:25:00,
2013-08-02 01:30:00,63.1,62.9,28.57,SE,135,0.0,0.0,99,0.00,CLR,SKC,0.00,WeatherDisplay:10.37,2013-08-02 05:30:00,
2013-08-02 01:35:00,63.0,62.7,28.57,SE,135,0.0,0.0,99,0.00,CLR,SKC,0.00,WeatherDisplay:10.37,2013-08-02 05:35:00,
2013-08-02 01:40:00,63.1,62.9,28.57,South,180,0.0,0.0,99,0.00,CLR,SKC,0.00,WeatherDisplay:10.37,2013-08-02 05:40:00,
2013-08-02 01:45:00,63.0,62.7,28.57,South,180,0.0,0.0,99,0.00,CLR,SKC,0.00,WeatherDisplay:10.37,2013-08-02 05:45:00,
2013-08-02 01:50:00,63.0,62.7,28.57,SE,135,0.0,0.0,99,0.00,CLR,SKC,0.00,WeatherDisplay:10.37,2013-08-02 05:50:00,
2013-08-02 01:55:00,63.1,62.9,28.57,SE,135,0.0,0.0,99,0.00,CLR,SKC,0.00,WeatherDisplay:10.37,2013-08-02 05:55:00,
2013-08-02 02:00:00,63.0,62.7,28.57,SE,135,0.0,0.0,99,0.00,CLR,SKC,0.00,WeatherDisplay:10.37,2013-08-02 06:00:00,
2013-08-02 02:05:00,63.0,62.7,28.57,SE,135,0.0,0.0,99,0.00,CLR,SKC,0.00,WeatherDisplay:10.37,2013-08-02 06:05:00,
2013-08-02 02:10:00,62.6,62.3,28.56,SE,135,0.0,0.0,99,0.00,CLR,SKC,0.00,WeatherDisplay:10.37,2013-08-02 06:10:00,
2013-08-02 02:15:00,62.6,62.3,28.56,SE,135,0.0,0.0,99,0.00,CLR,SKC,0.00,WeatherDisplay:10.37,2013-08-02 06:15:00,
2013-08-02 02:20:00,62.6,62.3,28.56,SE,135,0.0,0.0,99,0.00,CLR,SKC,0.00,WeatherDisplay:10.37,2013-08-02 06:20:00,
2013-08-02 02:25:00,62.4,62.1,28.56,SE,135,0.0,0.0,99,0.00,CLR,SKC,0.00,WeatherDisplay:10.37,2013-08-02 06:25:00,
2013-08-02 02:30:00,62.4,62.1,28.56,East,90,0.0,0.0,99,0.00,CLR,SKC,0.00,WeatherDisplay:10.37,2013-08-02 06:30:00,
2013-08-02 02:35:00,62.2,62.0,28.56,East,90,0.0,0.0,99,0.00,CLR,SKC,0.00,WeatherDisplay:10.37,2013-08-02 06:35:00,
2013-08-02 02:40:00,62.1,61.8,28.56,East,90,0.0,0.0,99,0.00,CLR,SKC,0.00,WeatherDisplay:10.37,2013-08-02 06:40:00,
2013-08-02 02:45:00,61.9,61.6,28.57,East,90,0.0,0.0,99,0.00,CLR,SKC,0.00,WeatherDisplay:10.37,2013-08-02 06:45:00,
2013-08-02 02:50:00,61.7,61.4,28.57,East,90,0.0,0.0,99,0.00,CLR,SKC,0.00,WeatherDisplay:10.37,2013-08-02 06:50:00,
2013-08-02 02:55:00,61.7,61.4,28.57,SE,135,0.0,0.0,99,0.00,CLR,SKC,0.00,WeatherDisplay:10.37,2013-08-02 06:55:00,
2013-08-02 03:00:00,61.7,61.4,28.57,SE,135,0.0,0.0,99,0.00,CLR,SKC,0.00,WeatherDisplay:10.37,2013-08-02 07:00:00,
2013-08-02 03:05:00,61.7,61.4,28.57,SE,135,0.0,0.0,99,0.00,CLR,SKC,0.00,WeatherDisplay:10.37,2013-08-02 07:05:00,
2013-08-02 03:10:00,61.5,61.2,28.57,SE,135,0.0,0.0,99,0.00,CLR,SKC,0.00,WeatherDisplay:10.37,2013-08-02 07:10:00,
2013-08-02 03:15:00,61.5,61.2,28.57,SE,135,0.0,0.0,99,0.00,CLR,SKC,0.00,WeatherDisplay:10.37,2013-08-02 07:15:00,
2013-08-02 03:20:00,61.5,61.2,28.57,SE,135,0.0,0.0,99,0.00,CLR,SKC,0.00,WeatherDisplay:10.37,2013-08-02 07:20:00,
2013-08-02 03:25:00,61.5,61.2,28.57,SE,135,0.0,0.0,99,0.00,CLR,SKC,0.00,WeatherDisplay:10.37,2013-08-02 07:25:00,
2013-08-02 03:30:00,61.5,61.2,28.57,SE,135,0.0,0.0,99,0.00,CLR,SKC,0.00,WeatherDisplay:10.37,2013-08-02 07:30:00,
2013-08-02 03:35:00,61.5,61.2,28.57,SE,135,0.0,0.0,99,0.00,CLR,SKC,0.00,WeatherDisplay:10.37,2013-08-02 07:35:00,
2013-08-02 03:40:00,61.5,61.2,28.57,SE,135,0.0,0.0,99,0.00,CLR,SKC,0.00,WeatherDisplay:10.37,2013-08-02 07:40:00,
2013-08-02 03:45:00,61.3,61.1,28.57,SE,135,0.0,0.0,99,0.00,CLR,SKC,0.00,WeatherDisplay:10.37,2013-08-02 07:45:00,
2013-08-02 03:50:00,61.3,61.1,28.57,SE,135,0.0,0.0,99,0.00,CLR,SKC,0.00,WeatherDisplay:10.37,2013-08-02 07:50:00,
2013-08-02 03:55:00,61.3,61.1,28.57,SE,135,0.0,0.0,99,0.00,CLR,SKC,0.00,WeatherDisplay:10.37,2013-08-02 07:55:00,
2013-08-02 04:00:00,61.2,60.9,28.57,SE,135,0.0,0.0,99,0.00,CLR,SKC,0.00,WeatherDisplay:10.37,2013-08-02 08:00:00,
2013-08-02 04:05:00,61.2,60.9,28.57,SE,135,0.0,0.0,99,0.00,CLR,SKC,0.00,WeatherDisplay:10.37,2013-08-02 08:05:00,
2013-08-02 04:10:00,61.0,60.7,28.57,SE,135,0.0,0.0,99,0.00,CLR,SKC,0.00,WeatherDisplay:10.37,2013-08-02 08:10:00,
2013-08-02 04:15:00,61.0,60.7,28.57,SE,135,0.0,0.0,99,0.00,CLR,SKC,0.00,WeatherDisplay:10.37,2013-08-02 08:15:00,
2013-08-02 04:20:00,61.0,60.7,28.57,SE,135,0.0,0.0,99,0.00,CLR,SKC,0.00,WeatherDisplay:10.37,2013-08-02 08:20:00,
2013-08-02 04:25:00,61.0,60.7,28.57,SE,135,0.0,0.0,99,0.00,CLR,SKC,0.00,WeatherDisplay:10.37,2013-08-02 08:25:00,
2013-08-02 04:30:00,60.6,60.3,28.57,SE,135,0.0,0.0,99,0.00,CLR,SKC,0.00,WeatherDisplay:10.37,2013-08-02 08:30:00,
2013-08-02 04:35:00,60.4,60.2,28.57,SE,135,0.0,0.0,99,0.00,CLR,SKC,0.00,WeatherDisplay:10.37,2013-08-02 08:35:00,
2013-08-02 04:40:00,60.3,60.0,28.57,SE,135,0.0,0.0,99,0.00,CLR,SKC,0.00,WeatherDisplay:10.37,2013-08-02 08:40:00,
2013-08-02 04:45:00,60.3,60.0,28.57,SE,135,0.0,0.0,99,0.00,CLR,SKC,0.00,WeatherDisplay:10.37,2013-08-02 08:45:00,
2013-08-02 04:50:00,60.1,59.8,28.57,SE,135,0.0,0.0,99,0.00,CLR,SKC,0.00,WeatherDisplay:10.37,2013-08-02 08:50:00,
2013-08-02 04:55:00,60.1,59.8,28.56,SE,135,0.0,0.0,99,0.00,CLR,SKC,0.00,WeatherDisplay:10.37,2013-08-02 08:55:00,
2013-08-02 05:00:00,60.1,59.8,28.56,SE,135,0.0,0.0,99,0.00,CLR,SKC,0.00,WeatherDisplay:10.37,2013-08-02 09:00:00,
2013-08-02 05:05:00,60.1,59.8,28.57,SE,135,0.0,0.0,99,0.00,CLR,SKC,0.00,WeatherDisplay:10.37,2013-08-02 09:05:00,
2013-08-02 05:10:00,60.1,59.8,28.56,SE,135,0.0,0.0,99,0.00,CLR,SKC,0.00,WeatherDisplay:10.37,2013-08-02 09:10:00,
2013-08-02 05:15:00,60.1,60.1,28.57,SE,135,0.0,0.0,100,0.00,CLR,SKC,0.00,WeatherDisplay:10.37,2013-08-02 09:15:00,
2013-08-02 05:20:00,60.1,59.8,28.57,SE,135,0.0,0.0,99,0.00,CLR,SKC,0.00,WeatherDisplay:10.37,2013-08-02 09:20:00,
2013-08-02 05:25:00,60.1,59.8,28.57,SE,135,0.0,0.0,99,0.00,CLR,SKC,0.00,WeatherDisplay:10.37,2013-08-02 09:25:00,
2013-08-02 05:30:00,60.1,59.5,28.58,SE,135,0.0,0.0,98,0.00,CLR,SKC,0.00,WeatherDisplay:10.37,2013-08-02 09:30:00,
2013-08-02 05:35:00,60.1,59.2,28.58,SE,135,0.0,0.0,97,0.00,CLR,SKC,0.00,WeatherDisplay:10.37,2013-08-02 09:35:00,
2013-08-02 05:40:00,59.9,59.0,28.58,SE,135,0.0,0.0,97,0.00,CLR,SKC,0.00,WeatherDisplay:10.37,2013-08-02 09:40:00,
2013-08-02 05:45:00,59.9,58.8,28.58,SE,135,0.0,0.0,96,0.00,CLR,SKC,0.00,WeatherDisplay:10.37,2013-08-02 09:45:00,
2013-08-02 05:50:00,59.9,58.5,28.58,SE,135,0.0,0.0,95,0.00,CLR,SKC,0.00,WeatherDisplay:10.37,2013-08-02 09:50:00,
2013-08-02 05:55:00,59.7,58.0,28.58,SE,135,0.0,0.0,94,0.00,CLR,SKC,0.00,WeatherDisplay:10.37,2013-08-02 09:55:00,
2013-08-02 06:00:00,59.7,59.4,28.58,South,180,0.0,0.0,99,0.00,CLR,SKC,0.00,WeatherDisplay:10.37,2013-08-02 10:00:00,
2013-08-02 06:05:00,59.7,59.4,28.58,South,180,0.0,0.0,99,0.00,CLR,SKC,0.00,WeatherDisplay:10.37,2013-08-02 10:05:00,
2013-08-02 06:10:00,59.5,58.7,28.58,North,8,0.0,0.0,97,0.00,CLR,SKC,0.00,WeatherDisplay:10.37,2013-08-02 10:10:00,
2013-08-02 06:15:00,59.5,58.4,28.59,SE,135,0.0,0.0,96,0.00,CLR,SKC,0.00,WeatherDisplay:10.37,2013-08-02 10:15:00,
2013-08-02 06:20:00,59.5,58.1,28.59,South,180,0.0,0.0,95,0.00,CLR,SKC,0.00,WeatherDisplay:10.37,2013-08-02 10:20:00,
2013-08-02 06:25:00,59.5,57.8,28.59,South,180,0.0,0.0,94,0.00,CLR,SKC,0.00,WeatherDisplay:10.37,2013-08-02 10:25:00,
2013-08-02 06:30:00,59.5,57.5,28.59,South,180,0.0,0.0,93,0.00,CLR,SKC,0.00,WeatherDisplay:10.37,2013-08-02 10:30:00,
2013-08-02 06:35:00,59.5,57.5,28.60,SE,135,0.0,0.0,93,0.00,CLR,SKC,0.00,WeatherDisplay:10.37,2013-08-02 10:35:00,
2013-08-02 06:40:00,59.7,57.4,28.60,South,180,0.0,0.0,92,0.00,CLR,SKC,0.00,WeatherDisplay:10.37,2013-08-02 10:40:00,
2013-08-02 06:45:00,59.9,57.6,28.60,South,180,0.0,0.0,92,0.00,CLR,SKC,0.00,WeatherDisplay:10.37,2013-08-02 10:45:00,
2013-08-02 06:50:00,59.9,57.0,28.60,South,180,0.0,0.0,90,0.00,CLR,SKC,0.00,WeatherDisplay:10.37,2013-08-02 10:50:00,
2013-08-02 06:55:00,59.9,56.6,28.61,South,180,0.0,0.0,89,0.00,CLR,SKC,0.00,WeatherDisplay:10.37,2013-08-02 10:55:00,
2013-08-02 07:00:00,60.6,57.7,28.61,South,180,0.0,0.0,90,0.00,CLR,SKC,0.00,WeatherDisplay:10.37,2013-08-02 11:00:00,
2013-08-02 07:05:00,60.6,57.7,28.61,South,180,0.0,0.0,90,0.00,CLR,SKC,0.00,WeatherDisplay:10.37,2013-08-02 11:05:00,
2013-08-02 07:10:00,60.6,56.1,28.61,South,180,0.0,0.0,85,0.00,CLR,SKC,0.00,WeatherDisplay:10.37,2013-08-02 11:10:00,
2013-08-02 07:15:00,60.8,55.6,28.61,South,180,0.0,0.0,83,0.00,CLR,SKC,0.00,WeatherDisplay:10.37,2013-08-02 11:15:00,
2013-08-02 07:20:00,61.0,55.1,28.61,South,180,0.0,0.0,81,0.00,CLR,SKC,0.00,WeatherDisplay:10.37,2013-08-02 11:20:00,
2013-08-02 07:25:00,61.2,54.6,28.61,South,180,0.0,0.0,79,0.00,CLR,SKC,0.00,WeatherDisplay:10.37,2013-08-02 11:25:00,
2013-08-02 07:30:00,61.3,53.7,28.61,South,180,0.0,0.0,76,0.00,CLR,SKC,0.00,WeatherDisplay:10.37,2013-08-02 11:30:00,
2013-08-02 07:35:00,61.5,53.2,28.62,South,180,0.0,0.0,74,0.00,CLR,SKC,0.00,WeatherDisplay:10.37,2013-08-02 11:35:00,
2013-08-02 07:40:00,61.7,51.8,28.61,South,180,0.0,0.0,70,0.00,CLR,SKC,0.00,WeatherDisplay:10.37,2013-08-02 11:40:00,
2013-08-02 07:45:00,61.9,50.8,28.62,SE,135,0.0,0.0,67,0.00,CLR,SKC,0.00,WeatherDisplay:10.37,2013-08-02 11:45:00,
2013-08-02 07:50:00,62.2,49.5,28.62,South,180,0.0,0.0,63,0.00,CLR,SKC,0.00,WeatherDisplay:10.37,2013-08-02 11:50:00,
2013-08-02 07:55:00,62.4,48.3,28.63,South,180,0.0,0.0,60,0.00,CLR,SKC,0.00,WeatherDisplay:10.37,2013-08-02 11:55:00,
2013-08-02 08:00:00,62.6,46.2,28.63,South,180,0.0,0.0,55,0.00,CLR,SKC,0.00,WeatherDisplay:10.37,2013-08-02 12:00:00,
2013-08-02 08:05:00,62.6,46.2,28.63,South,180,0.0,0.0,55,0.00,CLR,SKC,0.00,WeatherDisplay:10.37,2013-08-02 12:05:00,
2013-08-02 08:10:00,63.1,42.6,28.62,South,180,0.0,0.0,47,0.00,CLR,SKC,0.00,WeatherDisplay:10.37,2013-08-02 12:10:00,
2013-08-02 08:15:00,63.5,40.0,28.63,South,180,0.0,0.0,42,0.00,CLR,SKC,0.00,WeatherDisplay:10.37,2013-08-02 12:15:00,
2013-08-02 08:21:00,64.0,36.5,28.62,South,180,0.0,0.0,36,0.00,CLR,SKC,0.00,WeatherDisplay:10.37,2013-08-02 12:21:00,
2013-08-02 08:26:00,64.2,32.9,28.62,South,180,0.0,0.0,31,0.00,CLR,SKC,0.00,WeatherDisplay:10.37,2013-08-02 12:26:00,
2013-08-02 08:31:00,64.6,32.4,28.63,South,180,0.0,0.0,30,0.00,CLR,SKC,0.00,WeatherDisplay:10.37,2013-08-02 12:31:00,
2013-08-02 08:36:00,64.8,32.6,28.62,North,11,0.0,0.0,30,0.00,CLR,SKC,0.00,WeatherDisplay:10.37,2013-08-02 12:36:00,
2013-08-02 08:41:00,65.1,32.9,28.62,South,180,0.0,0.0,30,0.00,CLR,SKC,0.00,WeatherDisplay:10.37,2013-08-02 12:41:00,
2013-08-02 08:45:00,65.7,33.4,28.63,West,270,0.0,0.0,30,0.00,CLR,SKC,0.00,WeatherDisplay:10.37,2013-08-02 12:45:00,
2013-08-02 08:50:00,66.9,34.5,28.63,West,270,0.0,0.0,30,0.00,CLR,SKC,0.00,WeatherDisplay:10.37,2013-08-02 12:50:00,
2013-08-02 08:56:00,66.9,34.5,28.63,South,180,0.0,0.0,30,0.00,CLR,SKC,0.00,WeatherDisplay:10.37,2013-08-02 12:56:00,
2013-08-02 09:01:00,66.9,34.5,28.63,South,180,0.0,0.0,30,0.00,CLR,SKC,0.00,WeatherDisplay:10.37,2013-08-02 13:01:00,
2013-08-02 09:06:00,66.9,34.5,28.63,South,180,0.0,0.0,30,0.00,CLR,SKC,0.00,WeatherDisplay:10.37,2013-08-02 13:06:00,
2013-08-02 09:11:00,67.5,34.9,28.63,South,180,1.2,0.0,30,0.00,CLR,SKC,0.00,WeatherDisplay:10.37,2013-08-02 13:11:00,
2013-08-02 09:16:00,68.7,36.0,28.62,West,270,0.0,0.0,30,0.00,CLR,SKC,0.00,WeatherDisplay:10.37,2013-08-02 13:16:00,
2013-08-02 09:21:00,70.3,37.4,28.62,West,270,3.5,3.5,30,0.00,CLR,SKC,0.00,WeatherDisplay:10.37,2013-08-02 13:21:00,
2013-08-02 09:26:00,70.5,37.6,28.62,North,10,2.3,2.3,30,0.00,CLR,SKC,0.00,WeatherDisplay:10.37,2013-08-02 13:26:00,
2013-08-02 09:31:00,70.7,37.7,28.62,West,270,4.6,4.6,30,0.00,CLR,SKC,0.00,WeatherDisplay:10.37,2013-08-02 13:31:00,
2013-08-02 09:36:00,73.6,40.2,28.62,West,270,4.5,4.5,30,0.00,CLR,SKC,0.00,WeatherDisplay:10.37,2013-08-02 13:36:00,
2013-08-02 09:41:00,73.8,40.4,28.61,West,270,3.5,0.0,30,0.00,CLR,SKC,0.00,WeatherDisplay:10.37,2013-08-02 13:41:00,
2013-08-02 09:47:00,73.8,40.4,28.62,West,270,2.3,0.0,30,0.00,CLR,SKC,0.00,WeatherDisplay:10.37,2013-08-02 13:47:00,
2013-08-02 09:51:00,73.4,40.1,28.62,South,180,5.8,5.8,30,0.00,CLR,SKC,0.00,WeatherDisplay:10.37,2013-08-02 13:51:00,
2013-08-02 09:56:00,72.5,39.3,28.62,South,180,3.5,3.5,30,0.00,CLR,SKC,0.00,WeatherDisplay:10.37,2013-08-02 13:56:00,
2013-08-02 10:01:00,72.9,39.6,28.61,East,90,1.2,0.0,30,0.00,CLR,SKC,0.00,WeatherDisplay:10.37,2013-08-02 14:01:00,
2013-08-02 10:07:00,72.9,39.6,28.61,East,90,1.2,0.0,30,0.00,CLR,SKC,0.00,WeatherDisplay:10.37,2013-08-02 14:07:00,
2013-08-02 10:12:00,76.8,43.0,28.61,North,0,1.2,0.0,30,0.00,CLR,SKC,0.00,WeatherDisplay:10.37,2013-08-02 14:12:00,
2013-08-02 10:18:00,77.7,43.8,28.61,SE,135,3.5,0.0,30,0.00,CLR,SKC,0.00,WeatherDisplay:10.37,2013-08-02 14:18:00,
2013-08-02 10:23:00,77.7,43.8,28.61,SSE,158,4.6,4.6,30,0.00,CLR,SKC,0.00,WeatherDisplay:10.37,2013-08-02 14:23:00,
2013-08-02 10:28:00,76.3,42.6,28.62,West,270,8.1,8.1,30,0.00,CLR,SKC,0.00,WeatherDisplay:10.37,2013-08-02 14:28:00,
2013-08-02 10:33:00,74.7,41.2,28.62,South,180,3.5,0.0,30,0.00,CLR,SKC,0.00,WeatherDisplay:10.37,2013-08-02 14:33:00,
2013-08-02 10:38:00,75.0,41.5,28.63,NW,315,4.6,4.6,30,0.00,CLR,SKC,0.00,WeatherDisplay:10.37,2013-08-02 14:38:00,
2013-08-02 10:43:00,75.6,41.9,28.63,West,270,2.3,2.3,30,0.00,CLR,SKC,0.00,WeatherDisplay:10.37,2013-08-02 14:43:00,
2013-08-02 10:48:00,77.0,43.2,28.62,South,180,6.0,6.0,30,0.00,CLR,SKC,0.00,WeatherDisplay:10.37,2013-08-02 14:48:00,
2013-08-02 10:53:00,78.1,44.1,28.62,West,270,5.8,5.8,30,0.00,CLR,SKC,0.00,WeatherDisplay:10.37,2013-08-02 14:53:00,
2013-08-02 10:58:00,78.1,44.1,28.62,NNE,12,5.8,5.8,30,0.00,CLR,SKC,0.00,WeatherDisplay:10.37,2013-08-02 14:58:00,
2013-08-02 11:03:00,78.1,44.1,28.62,West,270,5.8,5.8,30,0.00,CLR,SKC,0.00,WeatherDisplay:10.37,2013-08-02 15:03:00,
2013-08-02 11:08:00,78.8,44.7,28.62,West,270,5.8,0.0,30,0.00,CLR,SKC,0.00,WeatherDisplay:10.37,2013-08-02 15:08:00,
2013-08-02 11:13:00,79.5,45.4,28.63,NW,315,3.1,3.1,30,0.00,CLR,SKC,0.00,WeatherDisplay:10.37,2013-08-02 15:13:00,
2013-08-02 11:18:00,80.1,45.8,28.63,West,270,3.5,3.5,30,0.00,CLR,SKC,0.00,WeatherDisplay:10.37,2013-08-02 15:18:00,
2013-08-02 11:23:00,80.4,46.1,28.63,West,270,3.5,3.5,30,0.00,CLR,SKC,0.00,WeatherDisplay:10.37,2013-08-02 15:23:00,
2013-08-02 11:28:00,80.1,45.8,28.63,West,270,5.8,5.8,30,0.00,CLR,SKC,0.00,WeatherDisplay:10.37,2013-08-02 15:28:00,
2013-08-02 11:33:00,81.0,46.6,28.63,West,270,2.3,2.3,30,0.00,CLR,SKC,0.00,WeatherDisplay:10.37,2013-08-02 15:33:00,
2013-08-02 11:39:00,79.7,45.5,28.63,West,270,10.4,10.4,30,0.00,CLR,SKC,0.00,WeatherDisplay:10.37,2013-08-02 15:39:00,
2013-08-02 11:44:00,80.1,47.5,28.63,NW,315,3.5,3.5,32,0.00,CLR,SKC,0.00,WeatherDisplay:10.37,2013-08-02 15:44:00,
2013-08-02 11:49:00,80.6,49.6,28.63,West,270,4.6,4.6,34,0.00,CLR,SKC,0.00,WeatherDisplay:10.37,2013-08-02 15:49:00,
2013-08-02 11:54:00,80.6,51.9,28.63,SE,135,8.1,8.1,37,0.00,CLR,SKC,0.00,WeatherDisplay:10.37,2013-08-02 15:54:00,
2013-08-02 11:59:00,80.8,52.8,28.63,South,180,10.4,0.0,38,0.00,CLR,SKC,0.00,WeatherDisplay:10.37,2013-08-02 15:59:00,
2013-08-02 12:04:00,80.8,52.8,28.63,East,90,3.5,3.5,38,0.00,CLR,SKC,0.00,WeatherDisplay:10.37,2013-08-02 16:04:00,
2013-08-02 12:08:00,80.1,54.9,28.63,East,90,3.5,3.5,42,0.00,CLR,SKC,0.00,WeatherDisplay:10.37,2013-08-02 16:08:00,
2013-08-02 12:14:00,80.6,57.3,28.63,South,180,9.2,9.2,45,0.00,CLR,SKC,0.00,WeatherDisplay:10.37,2013-08-02 16:14:00,
2013-08-02 12:19:00,80.1,57.4,28.63,SE,135,11.5,11.5,46,0.00,CLR,SKC,0.00,WeatherDisplay:10.37,2013-08-02 16:19:00,
2013-08-02 12:24:00,80.4,58.3,28.63,West,270,2.3,2.3,47,0.00,CLR,SKC,0.00,WeatherDisplay:10.37,2013-08-02 16:24:00,
2013-08-02 12:28:00,80.6,58.5,28.64,West,270,6.9,6.9,47,0.00,CLR,SKC,0.00,WeatherDisplay:10.37,2013-08-02 16:28:00,
2013-08-02 12:34:00,80.1,60.3,28.64,West,270,12.7,12.7,51,0.00,CLR,SKC,0.00,WeatherDisplay:10.37,2013-08-02 16:34:00,
2013-08-02 12:39:00,79.0,60.4,28.63,West,270,12.7,12.7,53,0.00,CLR,SKC,0.00,WeatherDisplay:10.37,2013-08-02 16:39:00,
2013-08-02 12:44:00,79.5,60.4,28.63,NW,315,8.1,8.1,52,0.00,CLR,SKC,0.00,WeatherDisplay:10.37,2013-08-02 16:44:00,
2013-08-02 12:49:00,79.7,62.1,28.63,West,270,3.5,3.5,55,0.00,CLR,SKC,0.00,WeatherDisplay:10.37,2013-08-02 16:49:00,
2013-08-02 12:54:00,79.9,61.7,28.63,West,270,4.6,4.6,54,0.00,CLR,SKC,0.00,WeatherDisplay:10.37,2013-08-02 16:54:00,
2013-08-02 12:59:00,80.4,63.3,28.63,West,270,4.6,4.6,56,0.00,CLR,SKC,0.00,WeatherDisplay:10.37,2013-08-02 16:59:00,
2013-08-02 13:04:00,80.6,63.5,28.63,West,270,4.6,4.6,56,0.00,CLR,SKC,0.00,WeatherDisplay:10.37,2013-08-02 17:04:00,
2013-08-02 13:09:00,80.4,62.8,28.63,SE,135,4.6,4.6,55,0.00,CLR,SKC,0.00,WeatherDisplay:10.37,2013-08-02 17:09:00,
2013-08-02 13:14:00,80.1,63.5,28.63,NNE,12,8.1,0.0,57,0.00,CLR,SKC,0.00,WeatherDisplay:10.37,2013-08-02 17:14:00,
2013-08-02 13:19:00,80.4,62.8,28.64,West,270,3.5,3.5,55,0.00,CLR,SKC,0.00,WeatherDisplay:10.37,2013-08-02 17:19:00,
2013-08-02 13:24:00,80.6,63.5,28.64,West,270,3.5,3.5,56,0.00,CLR,SKC,0.00,WeatherDisplay:10.37,2013-08-02 17:24:00,
2013-08-02 13:29:00,79.3,62.3,28.64,West,270,10.4,10.4,56,0.00,CLR,SKC,0.00,WeatherDisplay:10.37,2013-08-02 17:29:00,
2013-08-02 13:34:00,78.6,62.6,28.63,West,270,5.4,5.4,58,0.00,CLR,SKC,0.00,WeatherDisplay:10.37,2013-08-02 17:34:00,
2013-08-02 13:39:00,79.2,65.5,28.63,West,270,8.1,8.1,63,0.00,CLR,SKC,0.00,WeatherDisplay:10.37,2013-08-02 17:39:00,
2013-08-02 13:44:00,80.8,65.1,28.64,West,270,3.5,3.5,59,0.00,CLR,SKC,0.00,WeatherDisplay:10.37,2013-08-02 17:44:00,
2013-08-02 13:49:00,80.4,64.8,28.64,East,90,10.4,10.4,59,0.00,CLR,SKC,0.00,WeatherDisplay:10.37,2013-08-02 17:49:00,
2013-08-02 13:53:00,81.1,65.9,28.64,West,270,3.5,3.5,60,0.00,CLR,SKC,0.00,WeatherDisplay:10.37,2013-08-02 17:53:00,
2013-08-02 13:59:00,81.7,66.0,28.64,NW,315,4.6,4.6,59,0.00,CLR,SKC,0.00,WeatherDisplay:10.37,2013-08-02 17:59:00,
2013-08-02 14:04:00,81.7,66.0,28.64,North,1,1.2,1.2,59,0.00,CLR,SKC,0.00,WeatherDisplay:10.37,2013-08-02 18:04:00,
2013-08-02 14:08:00,79.9,65.7,28.64,South,180,1.2,1.2,62,0.00,CLR,SKC,0.00,WeatherDisplay:10.37,2013-08-02 18:08:00,
2013-08-02 14:14:00,79.9,65.7,28.64,West,270,2.3,2.3,62,0.00,CLR,SKC,0.00,WeatherDisplay:10.37,2013-08-02 18:14:00,
2013-08-02 14:19:00,80.8,66.1,28.64,South,180,8.1,8.1,61,0.00,CLR,SKC,0.00,WeatherDisplay:10.37,2013-08-02 18:19:00,
2013-08-02 14:24:00,80.2,65.6,28.64,West,270,3.5,3.5,61,0.00,CLR,SKC,0.00,WeatherDisplay:10.37,2013-08-02 18:24:00,
2013-08-02 14:29:00,79.7,65.1,28.64,West,270,12.7,12.7,61,0.00,CLR,SKC,0.00,WeatherDisplay:10.37,2013-08-02 18:29:00,
2013-08-02 14:34:00,79.3,65.6,28.65,West,270,5.4,5.4,63,0.00,CLR,SKC,0.00,WeatherDisplay:10.37,2013-08-02 18:34:00,
2013-08-02 14:39:00,79.2,64.6,28.64,West,270,5.8,5.8,61,0.00,CLR,SKC,0.00,WeatherDisplay:10.37,2013-08-02 18:39:00,
2013-08-02 14:44:00,79.7,66.9,28.64,North,8,3.5,3.5,65,0.00,CLR,SKC,0.00,WeatherDisplay:10.37,2013-08-02 18:44:00,
2013-08-02 14:49:00,81.5,66.8,28.64,West,270,5.8,5.8,61,0.00,CLR,SKC,0.00,WeatherDisplay:10.37,2013-08-02 18:49:00,
2013-08-02 14:53:00,80.6,65.4,28.64,SE,135,8.1,8.1,60,0.00,CLR,SKC,0.00,WeatherDisplay:10.37,2013-08-02 18:53:00,
2013-08-02 14:58:00,80.4,66.7,28.64,West,270,5.8,5.8,63,0.00,CLR,SKC,0.00,WeatherDisplay:10.37,2013-08-02 18:58:00,
2013-08-02 15:04:00,80.8,67.5,28.64,West,270,3.5,3.5,64,0.00,CLR,SKC,0.00,WeatherDisplay:10.37,2013-08-02 19:04:00,
2013-08-02 15:08:00,81.1,66.4,28.64,West,270,3.5,3.5,61,0.00,CLR,SKC,0.00,WeatherDisplay:10.37,2013-08-02 19:08:00,
2013-08-02 15:13:00,80.4,65.7,28.63,West,270,5.8,5.8,61,0.00,CLR,SKC,0.00,WeatherDisplay:10.37,2013-08-02 19:13:00,
2013-08-02 15:18:00,80.1,66.3,28.64,West,270,3.5,0.0,63,0.00,CLR,SKC,0.00,WeatherDisplay:10.37,2013-08-02 19:18:00,
2013-08-02 15:23:00,79.2,65.9,28.64,NNE,12,5.8,5.8,64,0.00,CLR,SKC,0.00,WeatherDisplay:10.37,2013-08-02 19:23:00,
2013-08-02 15:28:00,79.0,65.3,28.64,West,270,3.5,3.5,63,0.00,CLR,SKC,0.00,WeatherDisplay:10.37,2013-08-02 19:28:00,
2013-08-02 15:33:00,78.8,65.1,28.63,West,270,3.5,3.5,63,0.00,CLR,SKC,0.00,WeatherDisplay:10.37,2013-08-02 19:33:00,
2013-08-02 15:39:00,78.6,64.5,28.63,West,270,4.6,4.6,62,0.00,CLR,SKC,0.00,WeatherDisplay:10.37,2013-08-02 19:39:00,
2013-08-02 15:44:00,78.8,65.6,28.63,South,180,3.5,3.5,64,0.00,CLR,SKC,0.00,WeatherDisplay:10.37,2013-08-02 19:44:00,
2013-08-02 15:49:00,78.6,65.9,28.63,West,270,3.5,3.5,65,0.00,CLR,SKC,0.00,WeatherDisplay:10.37,2013-08-02 19:49:00,
2013-08-02 15:54:00,78.6,66.3,28.62,West,270,3.5,3.5,66,0.00,CLR,SKC,0.00,WeatherDisplay:10.37,2013-08-02 19:54:00,
2013-08-02 15:59:00,78.8,66.5,28.62,South,180,2.3,2.3,66,0.00,CLR,SKC,0.00,WeatherDisplay:10.37,2013-08-02 19:59:00,
2013-08-02 16:04:00,79.0,66.2,28.62,South,180,2.3,2.3,65,0.00,CLR,SKC,0.00,WeatherDisplay:10.37,2013-08-02 20:04:00,
2013-08-02 16:09:00,79.5,67.2,28.62,West,270,2.3,2.3,66,0.00,CLR,SKC,0.00,WeatherDisplay:10.37,2013-08-02 20:09:00,
2013-08-02 16:14:00,79.0,65.8,28.61,SSE,158,3.5,3.5,64,0.00,CLR,SKC,0.00,WeatherDisplay:10.37,2013-08-02 20:14:00,
2013-08-02 16:19:00,78.3,65.5,28.61,SE,135,3.5,3.5,65,0.00,CLR,SKC,0.00,WeatherDisplay:10.37,2013-08-02 20:19:00,
2013-08-02 16:24:00,78.3,66.4,28.62,West,270,3.5,3.5,67,0.00,CLR,SKC,0.00,WeatherDisplay:10.37,2013-08-02 20:24:00,
2013-08-02 16:29:00,78.4,67.0,28.62,South,180,1.2,1.2,68,0.00,CLR,SKC,0.00,WeatherDisplay:10.37,2013-08-02 20:29:00,
2013-08-02 16:34:00,78.3,66.4,28.62,West,270,3.5,3.5,67,0.00,CLR,SKC,0.00,WeatherDisplay:10.37,2013-08-02 20:34:00,
2013-08-02 16:39:00,78.1,66.7,28.62,South,180,2.3,2.3,68,0.00,CLR,SKC,0.00,WeatherDisplay:10.37,2013-08-02 20:39:00,
2013-08-02 16:44:00,78.1,66.7,28.61,West,270,3.5,3.5,68,0.00,CLR,SKC,0.00,WeatherDisplay:10.37,2013-08-02 20:44:00,
2013-08-02 16:49:00,77.7,66.3,28.61,West,270,5.8,5.8,68,0.00,CLR,SKC,0.00,WeatherDisplay:10.37,2013-08-02 20:49:00,
2013-08-02 16:54:00,77.7,67.2,28.61,South,180,2.3,2.3,70,0.00,CLR,SKC,0.00,WeatherDisplay:10.37,2013-08-02 20:54:00,
2013-08-02 16:59:00,78.1,67.1,28.61,North,8,2.3,0.0,69,0.00,CLR,SKC,0.00,WeatherDisplay:10.37,2013-08-02 20:59:00,
2013-08-02 17:04:00,78.1,67.1,28.62,North,0,1.2,0.0,69,0.00,CLR,SKC,0.00,WeatherDisplay:10.37,2013-08-02 21:04:00,
2013-08-02 17:09:00,78.1,67.5,28.62,SE,135,2.3,2.3,70,0.00,CLR,SKC,0.00,WeatherDisplay:10.37,2013-08-02 21:09:00,
2013-08-02 17:14:00,77.4,67.2,28.61,North,9,5.8,5.8,71,0.00,CLR,SKC,0.00,WeatherDisplay:10.37,2013-08-02 21:14:00,
2013-08-02 17:19:00,77.0,67.3,28.61,West,270,3.5,3.5,72,0.00,CLR,SKC,0.00,WeatherDisplay:10.37,2013-08-02 21:19:00,
2013-08-02 17:24:00,77.0,67.3,28.61,South,180,1.2,0.0,72,0.00,CLR,SKC,0.00,WeatherDisplay:10.37,2013-08-02 21:24:00,
2013-08-02 17:29:00,77.2,67.5,28.61,South,180,1.2,0.0,72,0.00,CLR,SKC,0.00,WeatherDisplay:10.37,2013-08-02 21:29:00,
2013-08-02 17:34:00,77.5,67.4,28.61,West,270,2.3,2.3,71,0.00,CLR,SKC,0.00,WeatherDisplay:10.37,2013-08-02 21:34:00,
2013-08-02 17:39:00,77.5,68.2,28.61,West,270,3.5,3.5,73,0.00,CLR,SKC,0.00,WeatherDisplay:10.37,2013-08-02 21:39:00,
2013-08-02 17:44:00,77.5,67.8,28.61,East,90,2.3,0.0,72,0.00,CLR,SKC,0.00,WeatherDisplay:10.37,2013-08-02 21:44:00,
2013-08-02 17:49:00,77.5,68.2,28.61,SE,135,2.3,2.3,73,0.00,CLR,SKC,0.00,WeatherDisplay:10.37,2013-08-02 21:49:00,
2013-08-02 17:54:00,76.8,67.1,28.61,South,180,2.3,2.3,72,0.00,CLR,SKC,0.00,WeatherDisplay:10.37,2013-08-02 21:54:00,
2013-08-02 17:59:00,76.6,67.3,28.61,North,4,2.3,0.0,73,0.00,CLR,SKC,0.00,WeatherDisplay:10.37,2013-08-02 21:59:00,
2013-08-02 18:04:00,76.6,67.3,28.60,NW,315,1.2,0.0,73,0.00,CLR,SKC,0.00,WeatherDisplay:10.37,2013-08-02 22:04:00,
2013-08-02 18:09:00,76.1,67.6,28.60,NW,315,1.2,0.0,75,0.00,CLR,SKC,0.00,WeatherDisplay:10.37,2013-08-02 22:09:00,
2013-08-02 18:14:00,76.3,67.8,28.60,North,0,2.3,2.3,75,0.00,CLR,SKC,0.00,WeatherDisplay:10.37,2013-08-02 22:14:00,
2013-08-02 18:19:00,76.3,67.8,28.60,South,180,1.2,0.0,75,0.00,CLR,SKC,0.00,WeatherDisplay:10.37,2013-08-02 22:19:00,
2013-08-02 18:24:00,76.3,67.8,28.59,SE,135,1.2,1.2,75,0.00,CLR,SKC,0.00,WeatherDisplay:10.37,2013-08-02 22:24:00,
2013-08-02 18:29:00,76.1,68.0,28.60,South,180,1.2,0.0,76,0.00,CLR,SKC,0.00,WeatherDisplay:10.37,2013-08-02 22:29:00,
2013-08-02 18:34:00,75.9,67.8,28.60,SE,135,1.2,0.0,76,0.00,CLR,SKC,0.00,WeatherDisplay:10.37,2013-08-02 22:34:00,
2013-08-02 18:39:00,75.7,68.0,28.60,North,0,1.2,0.0,77,0.00,CLR,SKC,0.00,WeatherDisplay:10.37,2013-08-02 22:39:00,
2013-08-02 18:44:00,75.4,67.7,28.59,West,270,3.5,3.5,77,0.00,CLR,SKC,0.00,WeatherDisplay:10.37,2013-08-02 22:44:00,
2013-08-02 18:49:00,75.0,67.7,28.60,South,180,0.0,0.0,78,0.00,CLR,SKC,0.00,WeatherDisplay:10.37,2013-08-02 22:49:00,
2013-08-02 18:54:00,74.8,67.5,28.59,South,180,2.3,0.0,78,0.00,CLR,SKC,0.00,WeatherDisplay:10.37,2013-08-02 22:54:00,
2013-08-02 18:59:00,74.7,67.7,28.59,West,270,0.0,0.0,79,0.00,CLR,SKC,0.00,WeatherDisplay:10.37,2013-08-02 22:59:00,
2013-08-02 19:04:00,74.7,67.7,28.59,North,1,1.2,0.0,79,0.00,CLR,SKC,0.00,WeatherDisplay:10.37,2013-08-02 23:04:00,
2013-08-02 19:09:00,74.7,67.7,28.59,SE,135,0.0,0.0,79,0.00,CLR,SKC,0.00,WeatherDisplay:10.37,2013-08-02 23:09:00,
2013-08-02 19:14:00,74.7,68.1,28.59,SE,135,0.0,0.0,80,0.00,CLR,SKC,0.00,WeatherDisplay:10.37,2013-08-02 23:14:00,
2013-08-02 19:19:00,74.5,68.3,28.59,SE,135,1.2,0.0,81,0.00,CLR,SKC,0.00,WeatherDisplay:10.37,2013-08-02 23:19:00,
2013-08-02 19:24:00,74.3,68.1,28.59,South,180,1.2,1.2,81,0.00,CLR,SKC,0.00,WeatherDisplay:10.37,2013-08-02 23:24:00,
2013-08-02 19:29:00,74.1,67.9,28.59,SE,135,1.2,0.0,81,0.00,CLR,SKC,0.00,WeatherDisplay:10.37,2013-08-02 23:29:00,
2013-08-02 19:34:00,73.9,68.1,28.59,SE,135,2.3,0.0,82,0.00,CLR,SKC,0.00,WeatherDisplay:10.37,2013-08-02 23:34:00,
2013-08-02 19:39:00,73.8,67.9,28.59,SE,135,2.3,0.0,82,0.00,CLR,SKC,0.00,WeatherDisplay:10.37,2013-08-02 23:39:00,
2013-08-02 19:44:00,73.6,67.7,28.58,SE,135,1.2,0.0,82,0.00,CLR,SKC,0.00,WeatherDisplay:10.37,2013-08-02 23:44:00,
2013-08-02 19:49:00,73.2,67.7,28.58,South,180,1.2,1.2,83,0.00,CLR,SKC,0.00,WeatherDisplay:10.37,2013-08-02 23:49:00,
2013-08-02 19:54:00,72.9,67.4,28.59,NE,45,1.2,1.2,83,0.00,CLR,SKC,0.00,WeatherDisplay:10.37,2013-08-02 23:54:00,
2013-08-02 19:59:00,72.7,67.6,28.58,South,180,1.2,1.6,84,0.00,CLR,SKC,0.00,WeatherDisplay:10.37,2013-08-02 23:59:00,
2013-08-02 20:04:00,72.7,67.6,28.58,South,180,1.2,0.0,84,0.00,CLR,SKC,0.00,WeatherDisplay:10.37,2013-08-03 00:04:00,
2013-08-02 20:09:00,72.1,67.4,28.58,SE,135,1.2,0.0,85,0.00,CLR,SKC,0.00,WeatherDisplay:10.37,2013-08-03 00:09:00,
2013-08-02 20:14:00,71.8,67.4,28.58,SE,135,0.0,0.0,86,0.00,CLR,SKC,0.00,WeatherDisplay:10.37,2013-08-03 00:14:00,
2013-08-02 20:19:00,71.6,67.2,28.58,SE,135,1.2,0.0,86,0.00,CLR,SKC,0.00,WeatherDisplay:10.37,2013-08-03 00:19:00,
2013-08-02 20:24:00,71.6,67.2,28.59,SE,135,1.2,0.0,86,0.00,CLR,SKC,0.00,WeatherDisplay:10.37,2013-08-03 00:24:00,
2013-08-02 20:29:00,71.2,66.8,28.59,South,180,1.2,0.0,86,0.00,CLR,SKC,0.00,WeatherDisplay:10.37,2013-08-03 00:29:00,
2013-08-02 20:34:00,71.1,66.7,28.59,South,180,0.0,0.0,86,0.00,CLR,SKC,0.00,WeatherDisplay:10.37,2013-08-03 00:34:00,
2013-08-02 20:39:00,70.9,66.5,28.59,SE,135,0.0,0.0,86,0.00,CLR,SKC,0.00,WeatherDisplay:10.37,2013-08-03 00:39:00,
2013-08-02 20:44:00,70.7,66.3,28.59,SE,135,0.0,0.0,86,0.00,CLR,SKC,0.00,WeatherDisplay:10.37,2013-08-03 00:44:00,
2013-08-02 20:49:00,70.3,66.3,28.59,SE,135,0.0,0.0,87,0.00,CLR,SKC,0.00,WeatherDisplay:10.37,2013-08-03 00:49:00,
2013-08-02 20:54:00,70.3,66.3,28.59,SE,135,0.0,0.0,87,0.00,CLR,SKC,0.00,WeatherDisplay:10.37,2013-08-03 00:54:00,
2013-08-02 20:59:00,70.2,66.4,28.59,North,6,0.0,0.0,88,0.00,CLR,SKC,0.00,WeatherDisplay:10.37,2013-08-03 00:59:00,
2013-08-02 21:04:00,70.2,66.4,28.59,North,0,0.0,0.0,88,0.00,CLR,SKC,0.00,WeatherDisplay:10.37,2013-08-03 01:04:00,
2013-08-02 21:09:00,70.3,66.6,28.59,SE,135,0.0,0.0,88,0.00,CLR,SKC,0.00,WeatherDisplay:10.37,2013-08-03 01:09:00,
2013-08-02 21:14:00,70.3,66.9,28.59,SE,135,0.0,0.0,89,0.00,CLR,SKC,0.00,WeatherDisplay:10.37,2013-08-03 01:14:00,
2013-08-02 21:19:00,70.2,66.8,28.60,SE,135,0.0,0.0,89,0.00,CLR,SKC,0.00,WeatherDisplay:10.37,2013-08-03 01:19:00,
2013-08-02 21:24:00,70.0,66.6,28.60,SE,135,0.0,0.0,89,0.00,CLR,SKC,0.00,WeatherDisplay:10.37,2013-08-03 01:24:00,
2013-08-02 21:29:00,69.8,66.4,28.60,SE,135,0.0,0.0,89,0.00,CLR,SKC,0.00,WeatherDisplay:10.37,2013-08-03 01:29:00,
2013-08-02 21:34:00,69.6,66.2,28.60,SE,135,0.0,0.0,89,0.00,CLR,SKC,0.00,WeatherDisplay:10.37,2013-08-03 01:34:00,
2013-08-02 21:40:00,69.6,66.6,28.61,SE,135,0.0,0.0,90,0.00,CLR,SKC,0.00,WeatherDisplay:10.37,2013-08-03 01:40:00,
2013-08-02 21:45:00,69.6,66.6,28.61,SE,135,0.0,0.0,90,0.00,CLR,SKC,0.00,WeatherDisplay:10.37,2013-08-03 01:45:00,
2013-08-02 21:50:00,69.4,66.4,28.61,SE,135,0.0,0.0,90,0.00,CLR,SKC,0.00,WeatherDisplay:10.37,2013-08-03 01:50:00,
2013-08-02 21:55:00,69.6,66.9,28.61,South,180,0.0,0.0,91,0.00,CLR,SKC,0.00,WeatherDisplay:10.37,2013-08-03 01:55:00,
2013-08-02 22:00:00,69.6,66.9,28.60,SE,135,0.0,0.0,91,0.00,CLR,SKC,0.00,WeatherDisplay:10.37,2013-08-03 02:00:00,
2013-08-02 22:05:00,69.6,66.9,28.61,SE,135,0.0,0.0,91,0.00,CLR,SKC,0.00,WeatherDisplay:10.37,2013-08-03 02:05:00,
2013-08-02 22:10:00,69.4,66.7,28.61,SE,135,0.0,0.0,91,0.00,CLR,SKC,0.00,WeatherDisplay:10.37,2013-08-03 02:10:00,
2013-08-02 22:15:00,69.4,66.7,28.61,SE,135,0.0,0.0,91,0.00,CLR,SKC,0.00,WeatherDisplay:10.37,2013-08-03 02:15:00,
2013-08-02 22:20:00,69.3,66.5,28.61,South,180,0.0,0.0,91,0.00,CLR,SKC,0.00,WeatherDisplay:10.37,2013-08-03 02:20:00,
2013-08-02 22:25:00,69.3,66.8,28.60,SE,135,0.7,0.0,92,0.00,CLR,SKC,0.00,WeatherDisplay:10.37,2013-08-03 02:25:00,
2013-08-02 22:30:00,69.3,66.8,28.60,South,180,0.0,0.0,92,0.00,CLR,SKC,0.00,WeatherDisplay:10.37,2013-08-03 02:30:00,
2013-08-02 22:35:00,69.3,66.8,28.61,East,90,1.2,1.6,92,0.00,CLR,SKC,0.00,WeatherDisplay:10.37,2013-08-03 02:35:00,
2013-08-02 22:40:00,69.4,67.0,28.61,South,180,4.6,4.6,92,0.00,CLR,SKC,0.00,WeatherDisplay:10.37,2013-08-03 02:40:00,
2013-08-02 22:45:00,69.4,67.0,28.61,SE,135,2.3,2.3,92,0.00,CLR,SKC,0.00,WeatherDisplay:10.37,2013-08-03 02:45:00,
2013-08-02 22:50:00,69.4,67.0,28.61,South,180,3.5,0.0,92,0.00,CLR,SKC,0.00,WeatherDisplay:10.37,2013-08-03 02:50:00,
2013-08-02 22:55:00,69.3,66.8,28.61,South,180,1.2,0.0,92,0.00,CLR,SKC,0.00,WeatherDisplay:10.37,2013-08-03 02:55:00,
2013-08-02 23:00:00,69.3,67.1,28.61,South,180,2.3,2.3,93,0.00,CLR,SKC,0.00,WeatherDisplay:10.37,2013-08-03 03:00:00,
2013-08-02 23:05:00,69.3,67.1,28.61,South,180,2.3,2.3,93,0.00,CLR,SKC,0.00,WeatherDisplay:10.37,2013-08-03 03:05:00,
2013-08-02 23:10:00,69.4,67.3,28.61,South,180,1.2,0.0,93,0.00,CLR,SKC,0.00,WeatherDisplay:10.37,2013-08-03 03:10:00,
2013-08-02 23:15:00,69.4,67.3,28.61,South,180,2.3,0.0,93,0.00,CLR,SKC,0.00,WeatherDisplay:10.37,2013-08-03 03:15:00,
2013-08-02 23:20:00,69.4,67.3,28.61,SE,135,3.5,3.5,93,0.00,CLR,SKC,0.00,WeatherDisplay:10.37,2013-08-03 03:20:00,
2013-08-02 23:25:00,69.4,67.3,28.62,SE,135,5.8,0.0,93,0.00,CLR,SKC,0.00,WeatherDisplay:10.37,2013-08-03 03:25:00,
2013-08-02 23:30:00,69.4,67.3,28.62,SE,135,3.5,0.0,93,0.00,CLR,SKC,0.00,WeatherDisplay:10.37,2013-08-03 03:30:00,
2013-08-02 23:35:00,69.4,67.0,28.62,SE,135,1.2,1.2,92,0.00,CLR,SKC,0.00,WeatherDisplay:10.37,2013-08-03 03:35:00,
2013-08-02 23:40:00,69.4,67.0,28.62,South,180,1.2,0.0,92,0.00,CLR,SKC,0.00,WeatherDisplay:10.37,2013-08-03 03:40:00,
2013-08-02 23:45:00,69.4,67.3,28.62,South,180,3.5,3.5,93,0.00,CLR,SKC,0.00,WeatherDisplay:10.37,2013-08-03 03:45:00,
2013-08-02 23:50:00,69.4,67.3,28.62,SE,135,3.5,0.0,93,0.00,CLR,SKC,0.00,WeatherDisplay:10.37,2013-08-03 03:50:00,
2013-08-02 23:55:00,69.4,67.3,28.62,South,180,1.2,0.0,93,0.00,CLR,SKC,0.00,WeatherDisplay:10.37,2013-08-03 03:55:00,